Total_Precipitation_Accumulation
2.62 2.70 2.61 2.58 2.40 2.37 2.38 2.28 2.18 2.19 2.11 1.90 1.65 1.63 1.71 1.67 1.72 1.90 1.90 2.02 2.09 2.41 2.91 3.19 3.16 2.99 2.94 2.98 2.95 2.84 2.63 2.45 2.34 2.12 1.88 1.69 1.57 1.50 1.37 1.31 1.28 1.22 1.18
2.87 2.94 2.89 2.81 2.72 2.65 2.73 2.56 2.38 2.58 2.43 2.30 2.07 2.01 1.96 2.03 2.01 2.06 2.22 2.28 2.13 2.17 2.56 3.00 3.24 3.33 3.33 3.23 3.10 2.86 2.69 2.58 2.58 2.43 2.22 2.01 1.83 1.70 1.59 1.51 1.40 1.32 1.27
2.97 3.06 3.19 3.10 3.03 2.99 3.03 2.97 2.88 2.96 2.69 2.53 2.36 2.25 2.24 2.33 2.32 2.23 2.35 2.50 2.32 2.32 2.39 2.55 2.79 3.02 3.27 3.39 3.34 3.17 2.95 2.79 2.72 2.65 2.56 2.39 2.17 2.02 1.91 1.77 1.67 1.61 1.54
3.11 3.41 3.48 3.41 3.42 3.33 3.43 3.53 3.44 3.24 3.07 2.88 2.69 2.37 2.27 2.44 2.50 2.49 2.50 2.57 2.71 2.55 2.48 2.39 2.46 2.61 2.90 3.22 3.38 3.51 3.39 3.18 2.98 2.82 2.72 2.62 2.50 2.32 2.15 1.94 1.85 1.83 1.79
3.60 3.79 3.89 3.89 3.88 3.90 3.89 3.72 3.87 3.65 3.55 3.35 2.93 2.65 2.37 2.31 2.39 2.35 2.48 2.45 2.56 2.59 2.62 2.51 2.44 2.49 2.71 3.10 3.30 3.57 3.65 3.55 3.40 3.15 2.95 2.78 2.73 2.62 2.45 2.28 2.11 1.97 1.89
4.24 4.40 4.31 4.33 4.36 4.42 4.27 4.22 4.26 4.03 3.77 3.70 3.24 2.96 2.69 2.42 2.40 2.40 2.43 2.55 2.47 2.28 2.39 2.48 2.60 2.43 2.61 2.80 2.97 3.24 3.58 3.79 3.73 3.52 3.40 3.23 3.04 2.83 2.54 2.31 2.15 2.04 1.93
5.14 5.19 4.97 4.94 4.85 4.72 4.52 4.45 4.31 4.08 3.82 3.82 3.70 3.23 2.63 2.27 2.20 2.10 2.15 2.39 2.43 2.30 2.32 2.38 2.42 2.35 2.23 2.33 2.44 2.73 3.17 3.67 3.98 3.88 3.69 3.50 3.21 2.96 2.73 2.48 2.29 2.18 2.05
5.95 5.97 5.94 5.72 5.56 5.30 4.82 4.46 4.31 4.08 3.71 3.83 3.85 3.77 3.06 2.57 2.10 1.70 1.81 1.88 1.98 2.19 2.15 2.08 2.19 2.31 2.20 2.17 1.99 2.18 2.48 2.93 3.53 3.86 3.81 3.55 3.35 3.16 3.00 2.84 2.67 2.51 2.32
6.07 6.20 6.15 5.95 5.65 5.14 4.60 4.43 4.37 4.20 3.94 3.88 3.79 3.93 3.40 2.86 2.42 1.92 1.68 1.58 1.70 1.81 1.82 1.84 1.88 1.99 1.99 2.05 1.98 1.99 2.13 2.31 2.84 3.38 3.49 3.28 3.10 2.97 2.92 2.87 2.79 2.67 2.56
5.84 5.77 5.60 5.19 4.82 4.48 4.20 4.07 4.12 4.00 3.98 3.80 3.70 3.41 3.18 2.90 2.63 2.21 1.78 1.56 1.60 1.63 1.65 1.62 1.66 1.85 1.93 1.97 1.98 1.91 1.88 1.97 2.29 2.71 3.01 3.05 2.94 2.89 2.88 2.84 2.80 2.80 2.81
5.02 4.64 4.33 4.11 4.03 3.85 3.65 3.53 3.53 3.45 3.30 3.22 3.19 3.14 3.08 2.84 2.50 2.28 1.98 1.76 1.75 1.60 1.59 1.68 1.74 1.82 1.91 1.97 2.01 1.98 1.91 1.78 1.86 2.02 2.28 2.52 2.66 2.75 2.84 2.94 2.97 2.94 2.94
4.25 3.76 3.50 3.30 3.18 3.02 2.82 2.71 2.70 2.72 2.80 2.87 2.94 2.90 2.83 2.79 2.61 2.53 2.32 2.06 1.96 1.85 1.77 1.74 1.80 1.88 2.03 2.14 2.11 2.28 1.99 1.78 1.72 1.74 1.81 1.97 2.18 2.36 2.52 2.72 2.94 3.04 3.08
3.86 3.40 2.96 2.75 2.52 2.32 2.21 2.20 2.19 2.18 2.29 2.41 2.52 2.58 2.56 2.48 2.45 2.52 2.59 2.34 2.09 1.95 1.85 1.81 1.83 1.91 1.94 2.11 2.33 2.45 2.10 1.94 1.78 1.65 1.61 1.67 1.82 1.95 2.06 2.19 2.42 2.65 2.85
3.25 2.94 2.50 2.15 1.93 1.79 1.69 1.78 1.81 1.84 1.90 2.00 2.09 2.28 2.28 2.20 2.30 2.40 2.51 2.58 2.45 2.13 1.88 1.82 1.90 1.94 1.94 1.95 2.19 2.31 1.98 2.00 1.77 1.66 1.60 1.59 1.62 1.69 1.78 1.88 2.08 2.29 2.42
2.31 2.16 1.97 1.76 1.63 1.59 1.59 1.62 1.61 1.60 1.69 1.79 1.86 2.01 2.12 2.09 2.15 2.22 2.36 2.47 2.52 2.35 2.11 1.97 1.95 1.89 1.89 1.96 2.14 1.77 1.71 1.92 1.78 1.65 1.57 1.48 1.43 1.47 1.52 1.57 1.64 1.76 1.87
1.61 1.58 1.55 1.54 1.48 1.42 1.47 1.55 1.49 1.47 1.58 1.60 1.60 1.71 1.81 1.88 1.98 2.06 2.19 2.28 2.33 2.29 2.17 1.96 1.90 1.85 1.82 1.74 1.91 1.59 1.61 1.79 1.66 1.56 1.46 1.39 1.33 1.34 1.37 1.42 1.48 1.50 1.52
1.33 1.33 1.35 1.36 1.35 1.33 1.34 1.36 1.32 1.33 1.39 1.54 1.63 1.68 1.73 1.79 1.87 1.86 1.87 1.92 2.04 2.17 2.25 2.16 1.96 1.90 1.91 1.83 1.73 1.54 1.43 1.42 1.42 1.47 1.42 1.37 1.29 1.23 1.24 1.26 1.24 1.24 1.24
1.21 1.24 1.24 1.24 1.28 1.34 1.37 1.31 1.22 1.21 1.30 1.42 1.52 1.60 1.60 1.58 1.65 1.73 1.79 1.76 1.80 1.92 2.04 2.09 1.96 1.81 1.81 1.79 1.74 1.67 1.40 1.27 1.27 1.28 1.21 1.14 1.13 1.09 1.04 1.06 1.07 1.05 1.03
1.24 1.20 1.15 1.17 1.23 1.28 1.28 1.24 1.19 1.18 1.20 1.28 1.34 1.36 1.37 1.41 1.38 1.41 1.48 1.55 1.55 1.57 1.72 1.79 1.77 1.72 1.68 1.62 1.68 1.65 1.50 1.52 1.26 1.18 1.07 0.98 0.95 0.92 0.88 0.86 0.90 0.96 0.94
1.19 1.22 1.17 1.12 1.11 1.05 0.98 0.94 0.95 1.00 1.01 1.03 1.07 1.09 1.15 1.24 1.26 1.30 1.28 1.33 1.36 1.48 1.56 1.63 1.59 1.58 1.59 1.50 1.52 1.58 1.53 1.44 1.30 1.07 1.06 0.92 0.83 0.76 0.75 0.76 0.75 0.77 0.82
0.97 1.00 1.02 0.97 0.89 0.77 0.67 0.66 0.72 0.76 0.82 0.84 0.87 0.85 0.85 1.00 1.10 1.08 0.99 1.10 1.25 1.40 1.47 1.51 1.45 1.37 1.34 1.41 1.40 1.37 1.40 1.40 1.32 1.18 1.20 1.02 0.92 0.85 0.84 0.82 0.77 0.73 0.75
0.98 0.91 0.85 0.84 0.77 0.61 0.61 0.58 0.64 0.76 0.84 0.83 0.85 0.85 0.78 0.82 0.86 0.83 0.81 0.94 1.13 1.18 1.28 1.40 1.41 1.37 1.34 1.36 1.37 1.36 1.43 1.49 1.51 1.31 1.26 1.16 1.04 1.04 0.97 0.89 0.83 0.74 0.70
1.07 1.03 0.92 0.87 0.85 0.77 0.64 0.52 0.57 0.72 0.84 0.85 0.85 0.83 0.72 0.68 0.75 0.76 0.77 0.80 0.88 0.90 1.01 1.24 1.39 1.34 1.34 1.42 1.49 1.46 1.56 1.60 1.51 1.40 1.45 1.38 1.17 1.07 0.86 0.77 0.80 0.69 0.67
1.07 1.02 0.95 0.88 0.80 0.64 0.49 0.43 0.45 0.60 0.78 0.82 0.81 0.81 0.83 0.76 0.72 0.72 0.71 0.76 0.84 0.89 0.91 0.97 1.20 1.23 1.20 1.32 1.44 1.52 1.61 1.57 1.49 1.44 1.49 1.50 1.20 1.12 0.91 0.91 0.83 0.69 0.65
0.96 0.90 0.81 0.77 0.76 0.62 0.41 0.35 0.41 0.58 0.76 0.76 0.72 0.66 0.71 0.73 0.71 0.67 0.72 0.86 0.93 0.98 0.83 0.84 0.95 1.04 1.07 1.15 1.23 1.34 1.57 1.71 1.61 1.40 1.39 1.47 1.27 1.17 1.08 1.01 0.89 0.78 0.68
0.86 0.79 0.69 0.72 0.73 0.69 0.52 0.43 0.46 0.57 0.72 0.71 0.71 0.66 0.61 0.60 0.60 0.62 0.71 0.85 0.94 0.95 0.88 0.88 1.05 1.14 1.12 1.21 1.23 1.34 1.58 1.67 1.57 1.52 1.35 1.39 1.34 1.33 1.31 1.06 0.95 0.87 0.80